[[{"header":{"parameterUnit":"m.s-1","parameterCategory":1,"la1":30.2991,"la2":30.254,"lo1":-89.0895,"lo2":-89.0444,"dy":0.0017,"dx":0.0017,"nx":28,"ny":28,"refTime":"2025-07-26T03:00:00:Z","depth":0,"parameterNumber":2,"parameterNumberName":"U-component_of_WINDS"},"data":[0,0,0,0,0,0,0,0,0,0,0,0,0,0,0,0,0,0,0,0,0,0,0,0,0,0,0,0,0,0,0,0,0,0,0,0,0,0,0,0,0,0,0,0,0,0,0,0,0,0,0,0,0,0,0,0,0,0,-0.6514,-0.6514,0,-0.6501,-0.6501,-0.65,-0.6486,-0.6486,-0.6486,-0.6486,-0.6473,-0.6473,-0.6473,0,0,0,0,0,0,0,0,0,0,0,0,0,-0.653,-0.6529,-0.6514,-0.6514,-0.6514,-0.6501,-0.6501,-0.65,-0.6486,-0.6486,-0.6486,-0.6486,-0.6473,-0.6473,-0.6473,0,0,0,0,0,0,0,0,0,0,0,0,0,-0.652,-0.6529,-0.6514,-0.6505,-0.6504,-0.6501,-0.6501,-0.65,-0.6486,-0.6486,-0.6486,-0.6486,-0.6473,-0.6473,-0.6473,-0.6478,0,0,-0.6472,-0.6472,0,0,0,0,0,0,0,0,-0.6521,-0.652,-0.6507,-0.6506,-0.6505,-0.6495,-0.6501,-0.6493,-0.6487,-0.6493,-0.6486,-0.6485,-0.6481,-0.648,-0.6478,-0.6477,-0.6477,-0.6472,-0.6472,-0.6472,-0.6472,0,0,0,0,0,0,0,-0.6522,-0.652,-0.6509,-0.6507,-0.6505,-0.6503,-0.6501,-0.65,-0.6489,-0.6493,-0.6492,-0.649,-0.648,-0.6478,-0.6478,-0.6476,-0.6472,-0.6472,-0.6472,-0.6472,-0.648,-0.6481,0,0,0,0,0,0,-0.6523,-0.6521,-0.6509,-0.6508,-0.6512,-0.6503,-0.6501,-0.6498,-0.6489,-0.6487,-0.649,-0.649,-0.6479,-0.6478,-0.6477,-0.6483,-0.6472,-0.6472,-0.6472,-0.648,-0.648,-0.6481,0,0,0,0,0,0,-0.6524,-0.6522,-0.651,-0.6514,-0.6513,-0.6503,-0.65,-0.6498,-0.6496,-0.6487,-0.6485,-0.649,-0.6479,-0.6478,-0.6478,-0.6482,-0.6472,-0.6472,-0.6479,-0.648,-0.648,-0.6494,0,0,0,0,0,0,-0.6524,-0.6523,-0.6524,-0.6514,-0.6512,-0.651,-0.65,-0.6498,-0.6496,-0.6495,-0.6487,-0.6485,-0.6478,-0.6478,-0.6478,-0.6482,-0.6471,-0.6479,-0.648,-0.648,-0.6493,-0.6495,-0.6497,0,0,0,0,0,-0.6525,-0.6528,-0.6524,-0.6522,-0.6513,-0.651,-0.6509,-0.6501,-0.6496,-0.6498,-0.6492,-0.6485,-0.6482,-0.6479,-0.6478,-0.6482,-0.6479,-0.6479,-0.648,-0.6493,-0.6495,-0.6497,0,0,0,0,0,0,-0.6538,-0.6526,-0.6522,-0.6522,-0.6517,-0.6508,-0.6509,-0.6503,-0.65,-0.6499,-0.649,-0.6488,-0.649,-0.6486,-0.6482,-0.6487,-0.648,-0.648,-0.6489,-0.6491,-0.6493,-0.6494,-0.6471,0,0,0,0,0,-0.6541,-0.6539,-0.6529,-0.653,-0.6528,-0.6519,-0.6518,-0.6512,-0.6507,-0.6505,-0.6499,-0.6495,-0.6493,-0.6492,-0.6489,-0.6493,-0.6492,-0.6495,-0.6497,-0.6499,-0.6499,-0.6502,-0.6504,-0.6483,-0.6483,-0.6483,0,0,-0.6547,-0.654,-0.6539,-0.6533,-0.6528,-0.6527,-0.6518,-0.6516,-0.6516,-0.6505,-0.6505,-0.6501,-0.6495,-0.6498,-0.6498,-0.6494,-0.6505,-0.65,-0.6501,-0.6501,-0.6503,-0.6505,-0.6507,-0.6484,-0.6484,-0.6484,0,0,-0.6557,-0.6552,-0.6552,-0.6549,-0.6542,-0.6537,-0.6537,-0.6529,-0.6526,-0.6526,-0.6518,-0.6517,-0.6514,-0.6511,-0.6509,-0.652,-0.6514,-0.6519,-0.6528,-0.6531,-0.6533,-0.6534,-0.6539,-0.6541,-0.652,-0.652,-0.652,0,-0.6565,-0.6563,-0.6554,-0.6554,-0.6551,-0.6541,-0.6543,-0.654,-0.6533,-0.6532,-0.6528,-0.6524,-0.652,-0.6522,-0.6525,-0.6523,-0.6524,-0.652,-0.6533,-0.6534,-0.6536,-0.654,-0.6542,-0.6521,-0.6521,-0.6521,-0.652,0,-0.6574,-0.6572,-0.6574,-0.6568,-0.6566,-0.6567,-0.6559,-0.6558,-0.6553,-0.6548,-0.6549,-0.6543,-0.654,-0.6541,-0.6535,-0.6542,-0.654,-0.6535,-0.6527,-0.6538,-0.6543,-0.6544,-0.6522,-0.6522,-0.6521,-0.6521,0,0,-0.6591,-0.6581,-0.6582,-0.658,-0.6573,-0.6572,-0.6573,-0.657,-0.657,-0.6566,-0.6567,-0.6565,-0.656,-0.6558,-0.6553,-0.6555,-0.6566,-0.6549,-0.6549,-0.6553,-0.6574,-0.6579,-0.6581,-0.6562,-0.6562,-0.6562,-0.6575,0,-0.6601,-0.6601,-0.6594,-0.6596,-0.6596,-0.6587,-0.6588,-0.6584,-0.658,-0.658,-0.6575,-0.6574,-0.6567,-0.6566,-0.6568,-0.6564,-0.657,-0.6563,-0.6563,-0.6564,-0.6565,-0.6583,-0.6587,-0.66,-0.6576,-0.6577,-0.6577,0,-0.6612,-0.6609,-0.6611,-0.6606,-0.6605,-0.6606,-0.6603,-0.6603,-0.6599,-0.6596,-0.6594,-0.6588,-0.659,-0.6582,-0.6585,-0.658,-0.658,-0.6579,-0.6579,-0.6579,-0.6571,-0.6584,-0.6603,-0.6606,-0.6579,-0.6579,-0.6579,0,-0.6625,-0.6622,-0.6623,-0.6622,-0.6615,-0.6616,-0.6613,-0.6609,-0.6608,-0.6606,-0.6606,-0.6604,-0.6603,-0.6602,-0.6597,-0.6592,-0.66,-0.6592,-0.6599,-0.6599,-0.6601,-0.6601,-0.6621,-0.66,-0.66,-0.66,-0.66,0,-0.6637,-0.6639,-0.663,-0.6631,-0.6633,-0.6626,-0.6629,-0.6625,-0.6622,-0.6623,-0.6615,-0.6616,-0.6608,-0.6609,-0.6604,-0.6608,-0.6607,-0.6606,-0.6604,-0.6606,-0.6607,-0.6607,-0.6606,-0.6601,-0.66,-0.66,-0.66,0,-0.6652,-0.6646,-0.6647,-0.6641,-0.6639,-0.6642,-0.6637,-0.6638,-0.6634,-0.6635,-0.6635,-0.6628,-0.6629,-0.6623,-0.6622,-0.6619,-0.6625,-0.6622,-0.6626,-0.6626,-0.6632,-0.6632,-0.6654,-0.6657,-0.6633,-0.6633,-0.6633,0,-0.666,-0.6662,-0.6656,-0.6656,-0.6653,-0.6653,-0.6653,-0.6646,-0.6646,-0.6642,-0.6644,-0.6644,-0.6643,-0.6645,-0.664,-0.664,-0.6638,-0.6645,-0.6638,-0.664,-0.6639,-0.6639,-0.664,-0.6647,-0.6647,-0.6647,-0.6648,0,-0.6675,-0.6673,-0.6672,-0.667,-0.667,-0.6668,-0.6666,-0.6667,-0.6659,-0.666,-0.666,-0.666,-0.6659,-0.666,-0.6659,-0.6657,-0.6651,-0.665,-0.6652,-0.6654,-0.6657,-0.6656,-0.6631,-0.665,-0.6649,-0.6649,-0.6649,-0.6649,-0.6688,-0.6689,-0.6686,-0.6685,-0.6683,-0.6682,-0.6683,-0.668,-0.668,-0.6679,-0.6675,-0.6676,-0.6674,-0.6672,-0.6671,-0.6673,-0.6669,-0.6671,-0.6672,-0.6673,-0.6674,-0.6656,-0.6672,-0.6672,-0.6672,-0.6672,-0.6672,0,-0.6703,-0.6701,-0.6701,-0.6699,-0.6699,-0.6694,-0.6692,-0.6692,-0.6694,-0.6692,-0.6692,-0.6693,-0.6694,-0.669,-0.669,-0.6692,-0.669,-0.6693,-0.6693,-0.6693,-0.6677,-0.6676,-0.6695,-0.6695,-0.6695,-0.6695,-0.6695,-0.6695,-0.6711,-0.6714,-0.6711,-0.6713,-0.6711,-0.6712,-0.6712,-0.6711,-0.671,-0.6712,-0.6712,-0.671,-0.6707,-0.6708,-0.6709,-0.6708,-0.6709,-0.6712,-0.6711,-0.6696,-0.6694,-0.6692,-0.6691,-0.6712,-0.6712,-0.6726,-0.6727,-0.6727]},{"header":{"parameterUnit":"m.s-1","parameterCategory":1,"la1":30.2991,"la2":30.254,"lo1":-89.0895,"lo2":-89.0444,"dy":0.0017,"dx":0.0017,"nx":28,"ny":28,"refTime":"2025-07-26T03:00:00:Z","depth":0,"parameterNumber":3,"parameterNumberName":"V-component_of_WINDS"},"data":[0,0,0,0,0,0,0,0,0,0,0,0,0,0,0,0,0,0,0,0,0,0,0,0,0,0,0,0,0,0,0,0,0,0,0,0,0,0,0,0,0,0,0,0,0,0,0,0,0,0,0,0,0,0,0,0,0,0,4.2867,4.2867,0,4.282,4.2819,4.2819,4.2766,4.2766,4.2765,4.2764,4.2714,4.2713,4.2713,0,0,0,0,0,0,0,0,0,0,0,0,0,4.291,4.291,4.2867,4.2867,4.2866,4.282,4.2819,4.2819,4.2766,4.2766,4.2765,4.2764,4.2714,4.2713,4.2713,0,0,0,0,0,0,0,0,0,0,0,0,0,4.288,4.291,4.2867,4.2834,4.2831,4.282,4.2819,4.2818,4.2767,4.2765,4.2764,4.2763,4.2714,4.2713,4.2712,4.2729,0,0,4.271,4.2709,0,0,0,0,0,0,0,0,4.2882,4.2879,4.284,4.2837,4.2833,4.2798,4.2816,4.2789,4.2767,4.2791,4.2764,4.2763,4.2743,4.2739,4.2733,4.2727,4.2725,4.2709,4.2709,4.2708,4.2708,0,0,0,0,0,0,0,4.2884,4.288,4.2848,4.2839,4.2835,4.2821,4.2816,4.2811,4.2774,4.2789,4.2785,4.278,4.274,4.2734,4.2731,4.2724,4.2709,4.2709,4.2708,4.2708,4.2729,4.273,0,0,0,0,0,0,4.2892,4.2883,4.285,4.2847,4.2855,4.2822,4.2815,4.281,4.2774,4.2767,4.2781,4.2778,4.2736,4.2732,4.2729,4.2746,4.2708,4.2708,4.2707,4.2728,4.2729,4.2731,0,0,0,0,0,0,4.2893,4.2889,4.2852,4.2864,4.2858,4.2822,4.2817,4.281,4.2803,4.2768,4.2761,4.2781,4.2735,4.2731,4.273,4.2743,4.2707,4.2706,4.2727,4.2728,4.273,4.278,0,0,0,0,0,0,4.2894,4.289,4.2896,4.2864,4.2858,4.2854,4.2818,4.281,4.2802,4.2797,4.2766,4.276,4.2734,4.2731,4.2729,4.2742,4.2706,4.2725,4.2727,4.2729,4.2777,4.2783,4.2789,0,0,0,0,0,4.2896,4.2912,4.2897,4.2893,4.2865,4.2855,4.2851,4.2821,4.2803,4.2809,4.2786,4.2761,4.2743,4.2732,4.2728,4.2741,4.2724,4.2727,4.2729,4.2774,4.2782,4.2789,0,0,0,0,0,0,4.2946,4.2907,4.289,4.2897,4.2879,4.2846,4.2852,4.283,4.2817,4.2813,4.2776,4.2769,4.2773,4.2757,4.2745,4.2755,4.273,4.2732,4.2765,4.2772,4.2778,4.2781,4.2705,0,0,0,0,0,4.2958,4.2954,4.292,4.2929,4.2921,4.2889,4.2883,4.2861,4.2842,4.2834,4.2811,4.2793,4.2782,4.2777,4.2766,4.2775,4.2767,4.2782,4.2788,4.2793,4.2795,4.2797,4.2803,4.2739,4.2739,4.2739,0,0,4.2983,4.2961,4.296,4.2938,4.2922,4.2918,4.2883,4.2879,4.2875,4.2833,4.2831,4.2814,4.279,4.2795,4.2795,4.2782,4.2811,4.2796,4.28,4.2799,4.2801,4.2807,4.2812,4.2741,4.274,4.274,0,0,4.3024,4.3008,4.3013,4.2998,4.2975,4.2953,4.2955,4.2924,4.2911,4.2909,4.2877,4.2872,4.2855,4.284,4.283,4.2866,4.2842,4.2864,4.2894,4.2897,4.2902,4.2906,4.2918,4.2923,4.2866,4.2866,4.2866,0,4.3057,4.305,4.3019,4.3017,4.3008,4.2971,4.2976,4.2962,4.2936,4.2931,4.2916,4.2895,4.2876,4.2876,4.2885,4.2879,4.2878,4.2867,4.2904,4.2908,4.2911,4.2922,4.2927,4.2869,4.2868,4.2868,4.2868,0,4.3091,4.3086,4.3093,4.307,4.3062,4.3063,4.3032,4.3027,4.3007,4.2986,4.2984,4.2961,4.2944,4.2943,4.2922,4.2939,4.2931,4.2911,4.2884,4.2921,4.293,4.2934,4.2873,4.2872,4.2871,4.287,0,0,4.3162,4.3122,4.3125,4.3113,4.3085,4.308,4.308,4.3065,4.3061,4.3045,4.3043,4.303,4.3011,4.3,4.2977,4.2981,4.301,4.2959,4.2958,4.2969,4.3026,4.304,4.3046,4.2994,4.2995,4.2995,4.3027,0,4.3198,4.3196,4.3168,4.3174,4.3168,4.3133,4.3133,4.3115,4.3096,4.3088,4.3067,4.3058,4.3034,4.3027,4.3029,4.3006,4.302,4.3003,4.2991,4.2991,4.2996,4.3051,4.3066,4.3098,4.3031,4.3031,4.3032,0,4.324,4.3226,4.3231,4.3203,4.3199,4.32,4.3183,4.3176,4.3155,4.3141,4.3129,4.3104,4.3101,4.3077,4.3071,4.306,4.3054,4.3042,4.3042,4.3039,4.3013,4.3048,4.3107,4.3111,4.3038,4.3037,4.3037,0,4.329,4.3273,4.3274,4.3265,4.3232,4.3233,4.3219,4.3197,4.3189,4.3174,4.3169,4.3154,4.3145,4.3134,4.3105,4.309,4.3103,4.3076,4.309,4.3091,4.3093,4.3093,4.3151,4.3091,4.3091,4.3091,4.3091,0,4.3332,4.3337,4.3296,4.3296,4.33,4.3267,4.3271,4.3254,4.3235,4.323,4.3199,4.3196,4.3159,4.3151,4.3128,4.3127,4.3123,4.3111,4.3105,4.3113,4.3115,4.3107,4.3104,4.3092,4.3092,4.3091,4.3091,0,4.3389,4.3362,4.336,4.3329,4.3321,4.3325,4.3298,4.3296,4.3276,4.3271,4.3268,4.3235,4.3224,4.3195,4.3176,4.3161,4.3165,4.3154,4.3172,4.3168,4.3183,4.3182,4.3237,4.3242,4.3181,4.3181,4.3182,0,4.3417,4.3419,4.3389,4.3384,4.3371,4.3364,4.3356,4.3325,4.3317,4.3294,4.3295,4.3282,4.3269,4.3253,4.3227,4.3213,4.32,4.3221,4.3198,4.3206,4.3199,4.3199,4.3199,4.3226,4.3226,4.3227,4.3228,0,4.347,4.3456,4.3446,4.3432,4.3423,4.341,4.3395,4.3392,4.3357,4.335,4.3339,4.3329,4.3311,4.3297,4.3279,4.3263,4.3239,4.3235,4.3237,4.3245,4.3255,4.3249,4.3185,4.3234,4.3233,4.3233,4.3232,4.3232,4.3512,4.3512,4.3491,4.348,4.3466,4.3452,4.3449,4.3429,4.3419,4.3401,4.3383,4.3374,4.3352,4.3325,4.3311,4.3303,4.329,4.3294,4.3294,4.3295,4.3299,4.3258,4.3299,4.3299,4.3299,4.3299,4.3299,0,4.3562,4.3547,4.3538,4.3518,4.3509,4.3489,4.3471,4.3465,4.3457,4.3439,4.3428,4.3415,4.3402,4.3375,4.336,4.3358,4.3346,4.3355,4.3354,4.3351,4.3311,4.331,4.3364,4.3364,4.3364,4.3364,4.3364,4.3364,4.3587,4.3586,4.357,4.3562,4.3546,4.3537,4.3528,4.3515,4.3501,4.3488,4.3477,4.346,4.3438,4.3421,4.3408,4.34,4.3396,4.3407,4.3396,4.336,4.3353,4.3347,4.3346,4.3407,4.3407,4.3436,4.3436,4.3436]}]]